Wind_Speed
11 11 10 10 10 9 9 9 9 8 8 8 8 8 8 8 8 8 7 6 5 5 4 4 4 4 4 3 3 2 2 2 2 2 2 2 2 2 2 2 2 2 2
12 12 12 11 11 11 10 10 10 10 9 9 8 8 9 9 8 8 7 7 6 6 5 5 5 5 5 5 5 4 4 4 4 3 3 3 3 3 3 4 4 4 4
14 13 13 12 12 12 11 11 11 11 11 11 10 9 9 9 8 8 8 8 7 7 7 6 6 6 6 7 7 7 6 6 6 5 5 5 5 5 5 5 5 5 5
16 15 14 14 14 13 13 13 12 12 12 12 11 10 10 10 9 9 9 9 8 8 8 8 8 8 8 8 8 9 9 8 8 7 7 7 7 7 7 7 7 7 7
18 17 16 15 15 15 14 14 13 13 13 13 13 12 12 12 11 11 11 11 10 10 9 10 10 9 9 9 10 10 10 10 10 10 9 9 9 9 8 8 8 8 8
19 19 18 17 17 17 16 15 15 15 14 14 15 14 14 13 13 13 13 12 12 12 12 12 12 11 11 11 11 11 12 12 12 12 12 11 11 11 10 10 10 10 10
21 20 20 20 19 18 18 17 16 16 16 16 16 16 15 15 15 15 15 14 14 14 14 14 14 14 13 13 13 13 13 13 13 13 13 13 13 12 12 12 12 11 12
22 22 21 21 21 20 20 19 18 18 18 17 18 18 18 17 17 16 16 16 16 16 16 16 16 16 16 15 15 15 15 15 15 15 14 14 14 14 14 13 13 13 13
23 23 22 22 22 22 22 21 20 20 20 20 20 20 20 19 19 18 19 18 18 18 18 18 17 17 17 17 16 16 17 16 16 16 16 16 16 16 15 15 15 15 14
26 24 23 23 23 23 23 23 22 22 22 22 22 22 21 21 21 21 21 21 20 20 20 20 20 19 19 19 19 19 19 19 18 18 18 18 19 18 18 18 17 17 17
28 26 25 24 24 24 24 24 24 24 24 24 24 24 24 23 24 23 23 23 23 22 22 22 21 22 21 21 21 21 21 21 21 21 20 20 20 20 20 20 20 19 19
30 29 27 27 26 26 26 27 26 26 26 26 26 27 26 26 26 26 26 26 26 25 25 25 24 23 23 23 23 24 24 24 23 23 23 23 23 22 22 22 22 22 22
31 31 30 30 28 28 28 28 29 29 28 28 29 29 28 28 29 29 28 28 28 28 28 27 26 25 26 26 26 26 26 26 26 26 25 25 25 25 25 25 24 24 24
33 33 32 32 31 30 30 30 31 30 30 30 31 31 31 31 31 31 30 30 30 30 30 30 29 28 28 28 28 28 28 28 27 27 27 27 27 27 27 27 27 27 26
35 35 35 34 33 32 32 32 32 32 32 32 31 32 32 32 32 32 32 32 32 32 32 32 32 31 31 31 31 30 30 30 30 29 29 29 29 29 29 29 29 29 29
37 37 37 36 35 35 34 34 33 33 33 33 33 33 33 33 33 33 34 34 34 34 34 34 33 33 33 33 33 32 32 32 32 32 31 31 30 30 30 31 31 31 31
38 38 39 38 38 38 37 36 36 35 35 35 36 36 35 35 35 35 36 36 36 35 36 36 35 34 34 34 34 34 34 34 34 34 33 33 33 33 33 32 33 33 33
38 39 39 40 40 40 40 39 39 38 38 38 38 38 37 37 37 38 38 38 37 37 37 37 37 36 36 36 36 36 36 36 36 36 36 35 35 35 35 34 34 34 35
39 39 40 40 40 41 41 41 40 40 40 39 39 39 39 39 39 39 39 38 38 39 39 38 38 38 38 37 38 37 37 37 38 38 38 37 37 37 37 37 36 36 36
40 41 41 41 41 41 41 42 42 42 41 41 41 41 40 40 40 40 40 40 40 40 40 40 40 40 40 40 39 39 40 40 40 39 39 39 39 39 38 38 38 38 38
41 42 43 43 43 43 43 43 42 42 42 42 42 42 42 42 41 41 41 41 41 41 41 41 41 41 41 41 41 41 41 41 41 41 42 41 41 41 40 40 40 40 39
42 43 44 45 45 45 45 44 43 43 42 42 43 43 44 43 42 42 43 43 42 42 42 42 42 42 42 42 42 42 42 42 42 43 43 43 43 42 41 41 41 40 40
43 44 45 45 46 45 45 45 44 44 44 43 43 43 44 44 43 44 44 44 44 44 44 44 44 43 43 43 43 43 43 42 42 43 43 43 43 43 43 43 42 42 43
42 43 44 44 45 45 45 45 45 45 45 45 45 44 44 44 44 45 45 46 46 46 46 46 46 45 45 45 44 44 44 44 43 42 43 43 43 44 44 45 45 45 45
42 43 43 43 44 45 45 46 46 46 45 45 45 45 44 45 45 45 46 46 47 47 47 48 48 48 47 47 47 46 45 44 44 44 44 44 45 45 46 46 46 46 47
41 42 42 43 43 44 45 45 45 45 45 45 45 44 44 45 46 46 47 47 47 47 48 48 49 49 49 49 48 48 47 46 46 46 46 46 46 47 47 48 49 49 49
Wind_Direction
229 229 230 230 230 224 217 216 216 216 216 214 211 211 210 211 215 216 215 215 218 217 217 220 219 217 214 216 222 226 231 242 252 263 277 286 290 302 311 313 321 327 329
234 233 233 233 231 226 222 222 221 220 218 217 216 218 218 220 222 225 226 228 232 233 233 234 234 232 232 233 234 241 249 256 261 267 274 277 281 287 292 295 296 297 300
237 235 234 234 233 229 226 227 226 224 223 224 223 222 224 224 226 228 229 231 237 240 240 243 242 243 246 246 246 250 255 260 264 267 271 274 277 282 286 288 291 291 294
239 237 235 235 234 231 230 231 230 230 230 231 230 229 230 230 231 235 236 239 241 244 247 249 249 251 252 253 254 254 256 258 262 264 268 272 275 278 282 285 286 286 289
240 238 236 236 236 234 234 235 234 234 234 235 235 236 237 237 237 240 242 245 245 245 250 253 254 256 257 258 258 258 258 259 261 264 268 272 274 276 278 280 281 282 285
241 241 238 237 238 236 236 237 239 239 239 239 239 239 240 242 242 244 247 249 252 252 251 252 255 257 258 260 262 262 261 262 262 263 266 269 270 273 274 276 278 280 282
242 241 240 238 239 239 239 239 241 242 242 242 242 243 243 245 247 249 250 253 255 256 257 257 257 258 260 262 263 264 264 265 265 265 267 268 270 271 272 273 275 278 281
241 241 241 240 241 242 242 243 244 244 245 245 245 246 248 249 250 251 253 256 258 259 260 260 261 261 261 262 263 264 264 265 267 267 266 268 270 271 272 273 274 276 277
243 243 243 245 244 244 245 245 247 248 248 248 249 250 251 251 252 253 255 258 260 261 262 262 263 263 264 263 263 264 265 265 265 266 266 266 268 269 271 271 273 276 276
244 245 245 246 246 247 247 249 250 251 252 252 252 252 252 253 253 255 257 259 260 262 263 264 265 265 266 266 265 267 267 266 265 265 267 267 268 269 271 271 273 274 275
245 246 247 248 248 249 249 252 253 253 254 254 255 255 255 255 256 257 258 260 261 262 262 264 266 267 266 267 268 269 269 267 265 265 266 268 269 270 271 271 272 273 274
246 247 248 249 251 252 252 253 254 254 255 255 256 257 256 256 258 259 260 261 262 263 264 265 266 267 267 267 269 270 270 269 267 266 266 267 269 270 270 270 271 272 274
247 248 249 250 252 253 252 253 254 254 255 256 257 258 258 259 259 259 260 261 262 263 265 266 267 268 269 270 271 271 271 270 268 268 268 267 268 268 269 269 271 272 272
248 249 250 251 252 254 254 254 255 256 256 257 258 259 260 261 261 260 261 261 262 263 264 265 266 268 270 270 272 272 271 271 270 269 268 268 267 267 268 269 270 271 271
250 250 251 252 253 254 255 254 255 257 257 258 259 259 260 261 262 262 261 262 263 264 264 266 267 267 268 270 271 271 271 270 270 269 269 269 268 269 269 269 270 270 270
251 251 252 253 254 255 256 256 257 257 257 258 259 260 260 262 264 264 264 263 264 265 265 266 268 268 268 269 269 270 269 269 270 270 269 269 268 268 269 270 270 269 270
252 252 253 253 254 255 256 258 258 258 258 260 261 262 263 263 264 265 265 265 265 265 265 265 267 267 267 268 268 268 268 267 268 269 269 268 268 269 270 271 271 270 270
253 253 254 254 255 256 257 259 260 260 260 261 262 262 263 263 265 266 266 265 266 266 265 265 266 266 266 266 266 267 267 267 268 268 268 268 268 268 269 270 270 272 271
254 254 255 255 256 257 258 259 261 261 261 261 262 263 264 265 265 266 266 266 266 266 265 266 266 266 266 266 266 266 266 266 267 267 267 267 267 268 269 270 270 271 272
255 255 255 255 256 256 257 259 260 261 262 263 263 263 264 265 267 267 266 266 265 266 267 267 266 266 266 266 267 266 266 267 267 267 267 266 266 267 267 269 270 271 272
256 256 256 256 257 257 257 258 260 261 262 264 263 264 264 265 267 267 265 265 265 267 268 267 266 267 267 267 267 267 266 268 268 267 267 266 266 266 267 268 269 270 271
258 258 257 257 257 258 257 259 261 261 261 262 263 264 264 264 266 267 265 265 266 268 268 268 268 267 267 268 269 267 267 268 267 267 266 266 266 266 267 268 268 269 271
259 259 259 258 257 257 257 258 259 261 261 262 263 264 265 264 265 265 264 265 265 267 268 268 268 268 268 267 268 269 268 268 266 266 266 266 266 267 267 267 269 270 271
259 259 258 258 258 257 258 259 259 260 262 263 264 265 266 264 265 265 265 265 265 266 267 268 268 268 268 268 268 270 269 268 267 266 266 266 266 267 267 268 269 270 271
258 258 258 258 258 258 258 259 260 260 262 263 264 264 265 264 264 265 265 265 265 265 266 267 267 266 267 267 267 268 268 268 267 266 266 266 267 268 269 270 270 270 271
258 259 258 258 259 258 258 259 259 261 262 263 263 264 264 265 265 265 264 265 266 265 265 265 266 266 266 266 266 267 266 267 267 267 267 267 267 268 269 270 270 271 271
Height
5848 5848 5849 5850 5851 5852 5853 5853 5854 5855 5856 5857 5857 5858 5859 5859 5860 5861 5862 5862 5863 5863 5864 5864 5865 5865 5865 5866 5866 5866 5867 5867 5867 5867 5868 5868 5868 5868 5868 5868 5868 5868 5868
5846 5847 5848 5849 5850 5851 5852 5852 5853 5854 5855 5856 5857 5857 5858 5859 5859 5860 5861 5862 5862 5863 5863 5864 5864 5864 5865 5865 5865 5866 5866 5866 5867 5867 5867 5867 5867 5867 5868 5868 5868 5868 5867
5844 5845 5846 5847 5848 5849 5850 5851 5852 5853 5854 5855 5856 5856 5857 5858 5858 5859 5860 5861 5861 5862 5862 5863 5863 5863 5864 5864 5864 5865 5865 5865 5866 5866 5866 5866 5866 5866 5866 5867 5867 5867 5867
5841 5843 5844 5845 5846 5847 5849 5849 5850 5851 5852 5853 5854 5855 5856 5856 5857 5858 5858 5859 5860 5860 5861 5861 5862 5862 5863 5863 5863 5863 5864 5864 5864 5865 5865 5865 5865 5865 5865 5865 5865 5865 5865
5838 5840 5841 5843 5844 5845 5846 5847 5848 5849 5850 5851 5852 5853 5854 5854 5855 5856 5856 5857 5858 5858 5859 5860 5860 5861 5861 5861 5862 5862 5862 5862 5863 5863 5863 5863 5863 5863 5863 5864 5864 5864 5864
5835 5837 5838 5840 5841 5843 5844 5845 5846 5847 5848 5849 5850 5851 5852 5852 5853 5854 5854 5855 5856 5856 5857 5858 5858 5859 5859 5859 5860 5860 5860 5860 5861 5861 5861 5862 5862 5862 5862 5862 5862 5862 5862
5832 5833 5835 5837 5838 5840 5841 5842 5843 5844 5846 5846 5847 5848 5849 5850 5851 5851 5852 5853 5853 5854 5855 5855 5856 5856 5856 5857 5857 5858 5858 5858 5858 5859 5859 5859 5859 5859 5859 5859 5859 5859 5859
5828 5830 5831 5833 5835 5836 5838 5839 5840 5841 5842 5843 5844 5845 5846 5847 5848 5849 5849 5850 5851 5851 5852 5852 5853 5853 5854 5854 5854 5855 5855 5855 5855 5856 5856 5856 5857 5857 5857 5857 5857 5857 5857
5824 5826 5828 5829 5831 5832 5834 5835 5837 5838 5839 5840 5841 5842 5843 5844 5844 5845 5846 5847 5847 5848 5849 5849 5850 5850 5850 5850 5851 5851 5852 5852 5852 5853 5853 5853 5853 5853 5853 5854 5854 5854 5854
5820 5821 5824 5825 5827 5828 5830 5831 5832 5834 5835 5836 5837 5838 5839 5840 5841 5842 5843 5843 5844 5844 5845 5845 5846 5846 5846 5847 5847 5847 5848 5848 5849 5849 5849 5849 5849 5849 5850 5850 5850 5850 5850
5815 5817 5819 5821 5822 5824 5825 5826 5828 5829 5830 5831 5832 5833 5834 5835 5836 5837 5838 5839 5840 5840 5841 5841 5842 5842 5842 5842 5843 5843 5844 5844 5844 5845 5845 5845 5845 5845 5845 5846 5846 5846 5846
5810 5812 5814 5815 5817 5819 5820 5821 5822 5824 5825 5826 5827 5828 5830 5831 5832 5832 5833 5834 5835 5835 5836 5836 5837 5837 5837 5838 5838 5838 5839 5839 5839 5840 5840 5840 5840 5840 5840 5841 5841 5842 5842
5805 5807 5809 5810 5811 5813 5814 5816 5817 5818 5819 5820 5822 5823 5824 5825 5826 5827 5828 5828 5829 5830 5830 5831 5832 5832 5832 5832 5833 5833 5834 5834 5834 5834 5835 5835 5835 5835 5835 5836 5836 5836 5837
5799 5800 5802 5804 5806 5807 5808 5810 5811 5812 5813 5814 5815 5816 5818 5819 5819 5820 5821 5822 5823 5823 5824 5825 5826 5826 5826 5827 5827 5827 5828 5828 5828 5829 5829 5829 5829 5829 5830 5830 5830 5831 5831
5792 5794 5796 5798 5799 5801 5802 5803 5804 5805 5806 5807 5808 5809 5810 5811 5812 5813 5814 5815 5816 5816 5817 5818 5818 5819 5820 5820 5820 5821 5821 5821 5822 5822 5822 5823 5823 5823 5824 5824 5824 5824 5825
5785 5787 5789 5791 5792 5794 5795 5796 5797 5798 5799 5800 5801 5802 5803 5804 5805 5806 5807 5807 5808 5809 5810 5810 5810 5811 5812 5813 5813 5813 5814 5814 5815 5815 5816 5816 5816 5817 5817 5817 5817 5818 5818
5777 5779 5781 5783 5785 5786 5788 5789 5790 5791 5791 5793 5794 5794 5795 5796 5797 5798 5799 5799 5800 5801 5801 5802 5802 5803 5804 5804 5805 5806 5806 5806 5807 5808 5808 5809 5809 5810 5810 5810 5810 5810 5810
5768 5771 5773 5775 5776 5778 5779 5780 5782 5782 5783 5785 5785 5786 5787 5788 5789 5789 5790 5791 5791 5792 5792 5793 5794 5795 5795 5796 5797 5797 5798 5798 5799 5799 5800 5801 5801 5802 5802 5802 5802 5802 5803
5760 5762 5764 5766 5768 5769 5771 5772 5773 5774 5775 5776 5777 5778 5778 5779 5780 5780 5781 5782 5782 5783 5783 5784 5785 5786 5786 5787 5787 5788 5789 5789 5790 5790 5791 5792 5793 5793 5793 5794 5794 5794 5794
5751 5753 5755 5757 5758 5760 5761 5763 5764 5765 5766 5767 5768 5768 5769 5770 5770 5771 5772 5772 5773 5774 5774 5775 5775 5776 5777 5777 5778 5779 5779 5780 5780 5781 5782 5782 5783 5784 5784 5785 5785 5785 5785
5741 5743 5745 5747 5749 5750 5752 5753 5754 5755 5756 5757 5758 5759 5759 5760 5761 5761 5762 5762 5763 5764 5765 5765 5766 5766 5767 5768 5768 5769 5770 5770 5770 5771 5771 5772 5773 5774 5775 5775 5776 5776 5776
5732 5734 5735 5737 5738 5739 5741 5742 5743 5744 5746 5747 5748 5748 5749 5750 5751 5751 5752 5753 5753 5754 5755 5755 5756 5756 5757 5757 5757 5758 5759 5761 5761 5761 5761 5762 5763 5764 5765 5765 5766 5766 5766
5721 5723 5724 5726 5727 5729 5730 5731 5732 5734 5735 5736 5737 5738 5738 5739 5740 5740 5741 5742 5743 5744 5744 5745 5745 5746 5747 5747 5747 5747 5748 5750 5751 5751 5751 5752 5753 5753 5754 5755 5755 5756 5756
5711 5712 5714 5715 5716 5718 5719 5720 5722 5723 5725 5726 5726 5727 5727 5728 5728 5729 5730 5731 5731 5732 5733 5734 5734 5735 5735 5736 5736 5736 5737 5738 5739 5740 5741 5741 5742 5743 5743 5744 5744 5745 5745
5700 5702 5703 5704 5706 5707 5708 5710 5711 5712 5713 5714 5715 5716 5716 5716 5717 5718 5718 5719 5720 5721 5722 5722 5723 5724 5724 5725 5725 5725 5725 5726 5727 5728 5730 5731 5731 5731 5732 5732 5732 5732 5733
5690 5691 5693 5694 5695 5696 5698 5699 5700 5701 5702 5702 5703 5704 5705 5705 5706 5706 5707 5708 5708 5709 5710 5710 5711 5711 5712 5713 5713 5713 5714 5714 5715 5716 5718 5719 5719 5720 5720 5720 5720 5720 5721